ONEWEB-0573 (55152 NORAD) Tracking and Keplerian Element Data

This shows tracking and keplerian element data for the satellite.

Feedback or suggestion? Click here.




ElementValue
Catalog55152
NameONEWEB-0573
Epoch Orbit130
Epoch Day13.91667824
Epoch Year2023
RAAN284.1442
Inclination86.512
Eccentricity0.0011405
Argument of Perigee202.0861
Mean Anonmoly67.1332
Mean Motion14.91230457
Decay Rate-0.00048481
L11 55152U 23004N 23013.91667824 -.00048481 00000+0 -49150-2 0 9996
L22 55152 86.5120 284.1442 0011405 202.0861 67.1332 14.91230457 1309



Live tracking and technical data element details for ONEWEB-0573 (NORAD 55152). ONEWEB-0573 can be tracked NOW for your location showing map with azimuth and elevation plus other details from your city location.







IsCatalogInMostPopularTable: catalog: 55152, numindb: 3
Update: records affected: 1



GetName: 55152 ONEWEB-0573

Hit Count: updated at: Tue, 07 Feb 2023 14:03:11 GMT